Regional Weather Roundup
Issued by NWS Albany, NY

Home | Current Version | Previous Version | Text Only | Print | Product List | Glossary On
Versions: 1 2 3 4 5 6 7 8 9 10 11 12 13 14 15 16 17 18 19 20 21 22 23 24 25 26 27 28 29 30 31 32 33 34 35 36 37 38 39 40 41 42 43 44 45 46 47 48 49 50
000
ASUS41 KALY 310910
RWRALY

NEW YORK STATE HOURLY WEATHER ROUNDUP
NATIONAL WEATHER SERVICE ALBANY NY
500 AM EDT THU JUL 31 2014

NOTE: "FAIR" INDICATES FEW OR NO CLOUDS BELOW 12,000 FEET WITH NO
SIGNIFICANT WEATHER AND/OR NO OBSTRUCTIONS TO VISIBILITY.

NYZ032-033-038>043-046>054-057>066-NYZ062>081-311000-
EAST


CITY           SKY/WX    TMP DP  RH WIND       PRES   REMARKS
ALBANY         CLOUDY    65  57  75 S6        30.03R
GLENS FALLS    MOCLDY    58  55  90 CALM      30.03R
POUGHKEEPSIE   MOCLDY    58  55  90 CALM      30.05R
MONTGOMERY     PTCLDY    55  53  93 CALM      30.06R
WHITE PLAINS   PTCLDY    62  58  86 CALM      30.06S
ISLIP          CLEAR     65  59  81 CALM      30.06R
NEW YORK CITY  PTCLDY    70  55  59 SW3       30.05S
CENTRAL PARK   PTCLDY    68  54  60 CALM      30.09S
$$

NYZ005>009-017-018-044>046-055-056-311000-
CENTRAL


CITY           SKY/WX    TMP DP  RH WIND       PRES   REMARKS
FULTON         CLEAR     55  53  93 CALM      30.00R FOG
SYRACUSE       PTCLDY    56  55  97 E3        30.00R
ROME           CLEAR     55  54  96 SE5       30.03R
ELMIRA         MOCLDY    51  51 100 CALM      30.04R FOG
BINGHAMTON     MOCLDY    55  53  93 S5        30.05R
MONTICELLO     MOCLDY    55  54  94 CALM      30.09R
$$

NYZ026>034-041>043-311000-
NORTH


CITY           SKY/WX    TMP DP  RH WIND       PRES   REMARKS
WATERTOWN      CLEAR     59  53  80 VRB5      29.98R
FORT DRUM      NOT AVBL
MASSENA        CLEAR     52  52 100 CALM      29.99R
SARANAC LAKE   PTCLDY    43  43 100 CALM      30.02R FOG
PLATTSBURGH    MOCLDY    57  56  96 CALM      30.00R
$$

NYZ001>004-010>016-019>021-311000-
WEST


CITY           SKY/WX    TMP DP  RH WIND       PRES   REMARKS
NIAGARA FALLS  CLOUDY    58  54  86 CALM      29.97F
BUFFALO        CLOUDY    59  56  89 SE9       29.97F
DUNKIRK        TSTM      58  55  90 E3        30.00R
JAMESTOWN      CLOUDY    57  55  94 S5        30.02R
WELLSVILLE     CLOUDY    58  53  84 VRB6      30.04F
ROCHESTER      LGT RAIN  60  58  92 SW7       29.99S
PENN YAN       CLOUDY    59  56  89 SW8       30.01S
$$

             KEY
       WCI = WIND CHILL INDEX
       VSB = VISIBILITY
       HX  = HEAT INDEX
$$


USA.gov is the U.S. government's official web portal to all federal, state and local government web resources and services.